Tracking 26935 objects as of 4-Feb-2023
HD Live streaming from Space Station
objects crossing your sky now

NOAA 16 DEB

Track NOAA 16 DEB now!
10-day predictions


NORAD ID: 41409
Int'l Code: 2000-055KN
Perigee: 801.7 km
Apogee: 857.0 km
Inclination: 98.7 °
Period: 101.3 minutes
Semi major axis: 7200 km
RCS: Unknown
Launch date: September 21, 2000
Source: United States (US)
Launch site: AIR FORCE WESTERN TEST RANGE (AFWTR)

Note: This is SATELLITE DEBRIS
Your satellite tracking list
Your tracking list is empty




NASA's NSSDC Master Catalog

Two Line Element Set (TLE):
1 41409U 00055KN  23034.66623776  .00003831  00000-0  17765-2 0  9996
2 41409  98.7046 107.5901 0038392 216.7268 143.1278 14.20917886360038
Source of the keplerian elements: AFSPC